PST,Max TemperatureF,Mean TemperatureF,Min TemperatureF,Max Dew PointF,MeanDew PointF,Min DewpointF,Max Humidity, Mean Humidity, Min Humidity, Max Sea Level PressureIn, Mean Sea Level PressureIn, Min Sea Level PressureIn, Max VisibilityMiles, Mean VisibilityMiles, Min VisibilityMiles, Max Wind SpeedMPH, Mean Wind SpeedMPH, Max Gust SpeedMPH,PrecipitationIn, CloudCover, Events, WindDirDegrees
2012-2-1,64,55,45,52,47,42,93,73,52,30.22,30.15,30.10,10,9,7,12,4,14,0.00,0,,261
2012-2-2,67,55,42,52,41,13,93,54,14,30.09,30.01,29.94,10,9,5,23,6,29,0.00,0,,50
2012-2-3,72,65,57,27,18,10,21,18,14,30.07,30.02,29.99,10,10,10,31,19,39,0.00,0,,69
2012-2-4,74,64,54,38,25,17,47,33,18,30.10,30.05,30.02,10,10,10,28,16,36,0.00,0,,67
2012-2-5,75,62,48,47,31,22,71,44,16,30.09,30.04,29.99,10,10,10,24,12,30,0.00,0,,73
2012-2-6,72,60,47,51,36,22,80,49,17,30.05,29.97,29.92,10,10,10,17,7,22,0.00,0,,67
2012-2-7,69,62,55,50,43,37,77,55,33,30.03,29.93,29.87,10,10,10,23,10,26,T,5,Rain,88
2012-2-8,79,63,47,44,39,35,66,44,21,30.18,30.10,30.04,10,10,10,20,7,24,0.00,0,,30
2012-2-9,80,65,50,50,41,36,77,50,23,30.22,30.17,30.13,10,10,10,18,6,21,0.00,0,,291
2012-2-10,68,57,45,54,48,36,86,63,39,30.20,30.13,30.07,10,10,10,14,4,18,0.00,1,,133
2012-2-11,64,56,47,54,50,45,93,77,60,30.06,30.01,29.95,10,10,8,21,8,25,0.00,4,,288
2012-2-12,62,53,43,50,47,41,93,75,56,30.06,30.01,29.95,10,10,9,13,5,17,0.00,3,,130
2012-2-13,62,55,47,49,43,36,83,63,42,30.05,29.98,29.88,10,10,7,40,15,48,0.00,4,,283
2012-2-14,62,50,38,47,40,35,86,63,39,30.11,30.02,29.95,10,10,10,15,4,20,0.00,0,,153
2012-2-15,64,53,41,50,39,32,89,65,40,30.12,30.02,29.91,10,10,2,23,5,25,0.04,4,Rain,30
2012-2-16,72,54,36,37,32,27,76,48,19,30.18,30.12,30.05,10,10,10,25,7,36,0.00,0,,48
2012-2-17,70,56,41,45,36,28,80,51,22,30.21,30.16,30.11,10,10,10,15,4,18,0.00,0,,311
2012-2-18,62,51,39,50,45,34,93,75,56,30.17,30.10,30.04,10,10,8,14,5,18,0.00,1,,161
2012-2-19,61,52,42,47,44,40,93,72,51,30.12,30.06,30.01,10,9,7,13,4,16,0.00,2,,120
2012-2-20,61,52,42,48,44,37,93,74,55,30.17,30.13,30.09,10,10,10,12,4,17,0.00,0,,327
2012-2-21,79,59,39,47,38,24,89,52,15,30.19,30.16,30.12,10,10,10,22,6,26,0.00,0,,326
2012-2-22,77,62,47,49,42,32,71,51,31,30.17,30.06,29.94,10,10,10,14,4,14,0.00,0,,259
2012-2-23,72,59,46,52,43,34,77,57,37,29.94,29.88,29.84,10,10,10,12,5,15,0.00,0,,210
2012-2-24,62,54,45,54,51,40,100,83,66,30.18,30.07,29.95,10,4,0,12,5,16,0.00,5,Fog,254
2012-2-25,63,56,48,50,48,44,93,79,64,30.17,30.10,29.99,10,9,5,13,2,15,0.00,4,,201
2012-2-26,62,51,39,50,45,36,92,74,56,30.00,29.94,29.89,10,9,7,15,6,21,0.00,1,,183
2012-2-27,57,53,48,47,41,32,83,69,54,29.97,29.89,29.85,10,9,2,31,13,40,T,4,,275
2012-2-28,58,47,35,43,36,31,80,60,40,30.31,30.21,29.99,10,10,10,15,6,29,0.00,0,,146
2012-2-29,60,49,38,52,44,34,89,70,51,30.32,30.25,30.18,10,10,10,25,10,31,0.00,3,,278